Time,TemperatureF,DewpointF,PressureIn,WindDirection,WindDirectionDegrees,WindSpeedMPH,WindSpeedGustMPH,Humidity,HourlyPrecipIn,Conditions,Clouds,dailyrainin,SoftwareType,DateUTC
2013-12-13 00:01:00,11.8,4.0,29.87,SSE,168,7.2,7.2,70,0.00,,,0.00,VWS V14.01,2013-12-13 05:01:00,
2013-12-13 00:02:00,11.8,4.0,29.87,SSE,168,7.2,7.2,70,0.00,,,0.00,VWS V14.01,2013-12-13 05:02:00,
2013-12-13 00:08:00,11.8,4.0,29.87,SSE,161,3.1,7.2,70,0.00,,,0.00,VWS V14.01,2013-12-13 05:08:00,
2013-12-13 00:13:00,11.8,4.0,29.87,SSE,161,3.1,3.1,70,0.00,,,0.00,VWS V14.01,2013-12-13 05:13:00,
2013-12-13 00:18:00,11.8,4.0,29.87,SSE,161,3.1,3.1,70,0.00,,,0.00,VWS V14.01,2013-12-13 05:18:00,
2013-12-13 00:23:00,11.8,4.0,29.87,SSE,164,4.0,4.0,70,0.00,,,0.00,VWS V14.01,2013-12-13 05:23:00,
2013-12-13 00:28:00,11.8,4.0,29.87,SW,214,5.8,5.8,70,0.00,,,0.00,VWS V14.01,2013-12-13 05:28:00,
2013-12-13 00:33:00,11.8,4.0,29.87,SSE,166,4.0,5.8,70,0.00,,,0.00,VWS V14.01,2013-12-13 05:33:00,
2013-12-13 00:38:00,11.8,4.0,29.87,SSE,166,4.0,5.8,70,0.00,,,0.00,VWS V14.01,2013-12-13 05:38:00,
2013-12-13 00:43:00,11.8,4.0,29.84,SSE,155,4.0,5.8,70,0.00,,,0.00,VWS V14.01,2013-12-13 05:43:00,
2013-12-13 00:48:00,12.0,4.1,29.84,South,170,6.3,6.3,70,0.00,,,0.00,VWS V14.01,2013-12-13 05:48:00,
2013-12-13 00:53:00,12.0,4.1,29.84,SSE,167,3.6,5.8,70,0.00,,,0.00,VWS V14.01,2013-12-13 05:53:00,
2013-12-13 00:58:00,12.0,4.1,29.84,South,180,4.9,5.8,70,0.00,,,0.00,VWS V14.01,2013-12-13 05:58:00,
2013-12-13 01:03:00,12.0,4.1,29.84,SE,137,5.8,5.8,70,0.00,,,0.00,VWS V14.01,2013-12-13 06:03:00,
2013-12-13 01:08:00,12.0,4.1,29.84,SSE,162,3.6,7.6,70,0.00,,,0.00,VWS V14.01,2013-12-13 06:08:00,
2013-12-13 01:13:00,12.0,4.1,29.84,South,181,4.0,4.0,70,0.00,,,0.00,VWS V14.01,2013-12-13 06:13:00,
2013-12-13 01:18:00,12.0,4.1,29.84,SSE,168,5.4,5.4,70,0.00,,,0.00,VWS V14.01,2013-12-13 06:18:00,
2013-12-13 01:23:00,12.0,4.1,29.84,SSE,168,6.3,6.3,70,0.00,,,0.00,VWS V14.01,2013-12-13 06:23:00,
2013-12-13 01:28:00,12.0,4.1,29.84,SSE,168,4.0,6.3,70,0.00,,,0.00,VWS V14.01,2013-12-13 06:28:00,
2013-12-13 01:33:00,12.0,4.1,29.84,SSE,166,7.2,7.2,70,0.00,,,0.00,VWS V14.01,2013-12-13 06:33:00,
2013-12-13 01:38:00,12.0,4.1,29.84,SSE,167,6.3,7.2,70,0.00,,,0.00,VWS V14.01,2013-12-13 06:38:00,
2013-12-13 01:43:00,12.0,4.1,29.84,SSE,152,3.6,4.9,70,0.00,,,0.00,VWS V14.01,2013-12-13 06:43:00,
2013-12-13 01:48:00,12.0,4.1,29.84,South,176,4.9,5.8,70,0.00,,,0.00,VWS V14.01,2013-12-13 06:48:00,
2013-12-13 01:53:00,12.2,4.3,29.84,SSE,152,5.8,5.8,70,0.00,,,0.00,VWS V14.01,2013-12-13 06:53:00,
2013-12-13 01:58:00,12.2,4.3,29.84,SSE,165,3.1,7.6,70,0.00,,,0.00,VWS V14.01,2013-12-13 06:58:00,
2013-12-13 02:03:00,12.2,4.3,29.84,South,176,4.9,4.9,70,0.00,,,0.00,VWS V14.01,2013-12-13 07:03:00,
2013-12-13 02:08:00,12.2,4.3,29.84,SE,145,4.0,5.8,70,0.00,,,0.00,VWS V14.01,2013-12-13 07:08:00,
2013-12-13 02:13:00,12.2,4.3,29.84,SSE,161,3.6,3.6,70,0.00,,,0.00,VWS V14.01,2013-12-13 07:13:00,
2013-12-13 02:18:00,12.2,4.3,29.84,South,169,2.7,4.9,70,0.00,,,0.00,VWS V14.01,2013-12-13 07:18:00,
2013-12-13 02:23:00,12.4,4.5,29.84,South,169,2.7,2.7,70,0.00,,,0.00,VWS V14.01,2013-12-13 07:23:00,
2013-12-13 02:28:00,12.4,4.5,29.84,South,169,2.7,2.7,70,0.00,,,0.00,VWS V14.01,2013-12-13 07:28:00,
2013-12-13 02:33:00,12.4,4.5,29.84,SSE,156,3.6,4.9,70,0.00,,,0.00,VWS V14.01,2013-12-13 07:33:00,
2013-12-13 02:38:00,12.4,4.5,29.84,SE,143,2.7,4.9,70,0.00,,,0.00,VWS V14.01,2013-12-13 07:38:00,
2013-12-13 02:43:00,12.4,4.5,29.84,SE,143,4.9,5.8,70,0.00,,,0.00,VWS V14.01,2013-12-13 07:43:00,
2013-12-13 02:48:00,12.6,4.7,29.84,South,181,4.0,5.8,70,0.00,,,0.00,VWS V14.01,2013-12-13 07:48:00,
2013-12-13 02:53:00,12.6,4.7,29.84,South,179,4.0,4.0,70,0.00,,,0.00,VWS V14.01,2013-12-13 07:53:00,
2013-12-13 02:59:00,12.6,4.7,29.84,SSE,166,5.8,5.8,70,0.00,,,0.00,VWS V14.01,2013-12-13 07:59:00,
2013-12-13 03:04:00,12.6,4.7,29.84,SSE,160,3.1,5.8,70,0.00,,,0.00,VWS V14.01,2013-12-13 08:04:00,
2013-12-13 03:09:00,12.6,4.7,29.84,South,183,4.0,5.8,70,0.00,,,0.00,VWS V14.01,2013-12-13 08:09:00,
2013-12-13 03:14:00,12.6,4.7,29.84,South,176,4.9,4.9,70,0.00,,,0.00,VWS V14.01,2013-12-13 08:14:00,
2013-12-13 03:19:00,12.6,4.7,29.84,SSE,162,2.7,4.9,70,0.00,,,0.00,VWS V14.01,2013-12-13 08:19:00,
2013-12-13 03:24:00,12.6,4.7,29.84,South,172,0.0,3.1,70,0.00,,,0.00,VWS V14.01,2013-12-13 08:24:00,
2013-12-13 03:29:00,12.7,4.8,29.84,SSE,162,4.0,4.0,70,0.00,,,0.00,VWS V14.01,2013-12-13 08:29:00,
2013-12-13 03:34:00,12.7,4.8,29.84,SSE,160,3.1,4.0,70,0.00,,,0.00,VWS V14.01,2013-12-13 08:34:00,
2013-12-13 03:39:00,12.7,4.8,29.84,South,175,2.7,4.0,70,0.00,,,0.00,VWS V14.01,2013-12-13 08:39:00,
2013-12-13 03:44:00,12.9,5.0,29.84,SSW,202,0.0,4.0,70,0.00,,,0.00,VWS V14.01,2013-12-13 08:44:00,
2013-12-13 03:49:00,12.9,5.0,29.84,SSW,213,2.2,4.0,70,0.00,,,0.00,VWS V14.01,2013-12-13 08:49:00,
2013-12-13 03:54:00,12.9,5.0,29.84,South,182,0.0,4.0,70,0.00,,,0.00,VWS V14.01,2013-12-13 08:54:00,
2013-12-13 03:59:00,12.9,5.0,29.84,SSE,162,0.0,4.0,70,0.00,,,0.00,VWS V14.01,2013-12-13 08:59:00,
2013-12-13 04:04:00,12.9,5.0,29.84,SSE,166,2.7,3.6,70,0.00,,,0.00,VWS V14.01,2013-12-13 09:04:00,
2013-12-13 04:09:00,13.1,5.2,29.84,SSE,166,0.0,3.6,70,0.00,,,0.00,VWS V14.01,2013-12-13 09:09:00,
2013-12-13 04:14:00,13.3,5.3,29.84,South,176,0.0,0.0,70,0.00,,,0.00,VWS V14.01,2013-12-13 09:14:00,
2013-12-13 04:19:00,13.3,5.3,29.84,South,175,0.0,0.0,70,0.00,,,0.00,VWS V14.01,2013-12-13 09:19:00,
2013-12-13 04:24:00,13.3,5.3,29.84,South,175,0.0,0.0,70,0.00,,,0.00,VWS V14.01,2013-12-13 09:24:00,
2013-12-13 04:29:00,13.3,5.3,29.84,SSE,164,4.0,4.0,70,0.00,,,0.00,VWS V14.01,2013-12-13 09:29:00,
2013-12-13 04:34:00,13.3,5.3,29.84,South,170,0.0,0.0,70,0.00,,,0.00,VWS V14.01,2013-12-13 09:34:00,
2013-12-13 04:39:00,13.3,5.3,29.84,South,175,0.0,2.2,70,0.00,,,0.00,VWS V14.01,2013-12-13 09:39:00,
2013-12-13 04:44:00,13.3,5.3,29.84,South,171,0.0,0.0,70,0.00,,,0.00,VWS V14.01,2013-12-13 09:44:00,
2013-12-13 04:49:00,13.3,5.3,29.84,SSE,165,2.7,4.0,70,0.00,,,0.00,VWS V14.01,2013-12-13 09:49:00,
2013-12-13 04:54:00,13.3,5.3,29.84,South,182,0.0,2.7,70,0.00,,,0.00,VWS V14.01,2013-12-13 09:54:00,
2013-12-13 04:59:00,13.3,5.3,29.84,SW,229,3.6,3.6,70,0.00,,,0.00,VWS V14.01,2013-12-13 09:59:00,
2013-12-13 05:04:00,13.3,5.3,29.84,SW,234,0.0,2.7,70,0.00,,,0.00,VWS V14.01,2013-12-13 10:04:00,
2013-12-13 05:09:00,13.3,5.3,29.84,WSW,253,2.7,2.7,70,0.00,,,0.00,VWS V14.01,2013-12-13 10:09:00,
2013-12-13 05:14:00,13.3,5.3,29.84,SSE,168,0.0,0.0,70,0.00,,,0.00,VWS V14.01,2013-12-13 10:14:00,
2013-12-13 05:19:00,13.3,5.3,29.84,SSW,209,0.0,0.0,70,0.00,,,0.00,VWS V14.01,2013-12-13 10:19:00,
2013-12-13 05:24:00,13.3,5.3,29.84,SSW,209,0.0,0.0,70,0.00,,,0.00,VWS V14.01,2013-12-13 10:24:00,
2013-12-13 05:29:00,13.3,5.3,29.87,SSW,209,0.0,0.0,70,0.00,,,0.00,VWS V14.01,2013-12-13 10:29:00,
2013-12-13 05:34:00,13.3,5.3,29.87,SSW,209,0.0,0.0,70,0.00,,,0.00,VWS V14.01,2013-12-13 10:34:00,
2013-12-13 05:39:00,13.1,5.2,29.87,SSW,209,0.0,0.0,70,0.00,,,0.00,VWS V14.01,2013-12-13 10:39:00,
2013-12-13 05:45:00,13.1,5.2,29.87,SSW,209,0.0,0.0,70,0.00,,,0.00,VWS V14.01,2013-12-13 10:45:00,
2013-12-13 05:50:00,13.1,5.2,29.87,SSW,209,0.0,0.0,70,0.00,,,0.00,VWS V14.01,2013-12-13 10:50:00,
2013-12-13 05:55:00,13.1,5.2,29.87,SSW,209,0.0,0.0,70,0.00,,,0.00,VWS V14.01,2013-12-13 10:55:00,
2013-12-13 06:00:00,12.9,5.0,29.87,SSW,209,0.0,0.0,70,0.00,,,0.00,VWS V14.01,2013-12-13 11:00:00,
2013-12-13 06:05:00,12.9,5.0,29.87,SSW,209,0.0,0.0,70,0.00,,,0.00,VWS V14.01,2013-12-13 11:05:00,
2013-12-13 06:10:00,12.9,5.0,29.87,SSW,209,0.0,0.0,70,0.00,,,0.00,VWS V14.01,2013-12-13 11:10:00,
2013-12-13 06:15:00,12.9,5.0,29.87,West,261,3.6,3.6,70,0.00,,,0.00,VWS V14.01,2013-12-13 11:15:00,
2013-12-13 06:20:00,12.9,5.0,29.87,WSW,241,4.0,4.0,70,0.00,,,0.00,VWS V14.01,2013-12-13 11:20:00,
2013-12-13 06:25:00,12.9,5.0,29.87,WNW,292,3.6,4.0,70,0.00,,,0.00,VWS V14.01,2013-12-13 11:25:00,
2013-12-13 06:30:00,12.6,4.7,29.87,WNW,302,4.9,4.9,70,0.00,,,0.00,VWS V14.01,2013-12-13 11:30:00,
2013-12-13 06:35:00,12.2,4.3,29.87,SW,226,0.0,4.9,70,0.00,,,0.00,VWS V14.01,2013-12-13 11:35:00,
2013-12-13 06:40:00,12.2,4.3,29.87,SW,226,0.0,0.0,70,0.00,,,0.00,VWS V14.01,2013-12-13 11:40:00,
2013-12-13 06:45:00,12.0,4.1,29.87,SW,223,0.0,3.6,70,0.00,,,0.00,VWS V14.01,2013-12-13 11:45:00,
2013-12-13 06:50:00,12.0,4.1,29.87,SW,223,0.0,0.0,70,0.00,,,0.00,VWS V14.01,2013-12-13 11:50:00,
2013-12-13 06:55:00,12.0,4.1,29.87,South,175,0.0,0.0,70,0.00,,,0.00,VWS V14.01,2013-12-13 11:55:00,
2013-12-13 07:00:00,12.0,4.1,29.87,South,175,0.0,0.0,70,0.00,,,0.00,VWS V14.01,2013-12-13 12:00:00,
2013-12-13 07:05:00,12.0,4.1,29.90,WNW,282,0.0,0.0,70,0.00,,,0.00,VWS V14.01,2013-12-13 12:05:00,
2013-12-13 07:10:00,12.0,4.1,29.90,WNW,282,0.0,0.0,70,0.00,,,0.00,VWS V14.01,2013-12-13 12:10:00,
2013-12-13 07:15:00,11.8,4.0,29.90,WNW,282,0.0,0.0,70,0.00,,,0.00,VWS V14.01,2013-12-13 12:15:00,
2013-12-13 07:20:00,11.7,3.8,29.90,WNW,282,0.0,0.0,70,0.00,,,0.00,VWS V14.01,2013-12-13 12:20:00,
2013-12-13 07:24:00,11.7,3.8,29.90,WNW,282,0.0,0.0,70,0.00,,,0.00,VWS V14.01,2013-12-13 12:24:00,
2013-12-13 07:29:00,11.7,3.8,29.90,WNW,282,0.0,0.0,70,0.00,,,0.00,VWS V14.01,2013-12-13 12:29:00,
2013-12-13 07:34:00,11.7,3.8,29.90,WNW,282,0.0,0.0,70,0.00,,,0.00,VWS V14.01,2013-12-13 12:34:00,
2013-12-13 07:39:00,11.7,3.8,29.90,WNW,282,0.0,0.0,70,0.00,,,0.00,VWS V14.01,2013-12-13 12:39:00,
2013-12-13 07:44:00,11.7,3.8,29.90,SW,219,0.0,0.0,70,0.00,,,0.00,VWS V14.01,2013-12-13 12:44:00,
2013-12-13 07:49:00,11.7,3.8,29.90,SW,219,0.0,0.0,70,0.00,,,0.00,VWS V14.01,2013-12-13 12:49:00,
2013-12-13 07:54:00,11.7,3.8,29.90,SW,219,0.0,0.0,70,0.00,,,0.00,VWS V14.01,2013-12-13 12:54:00,
2013-12-13 07:59:00,11.7,3.8,29.93,South,184,0.0,0.0,70,0.00,,,0.00,VWS V14.01,2013-12-13 12:59:00,
2013-12-13 08:04:00,11.7,3.8,29.93,WSW,248,0.0,0.0,70,0.00,,,0.00,VWS V14.01,2013-12-13 13:04:00,
2013-12-13 08:09:00,11.7,3.8,29.93,WSW,248,0.0,0.0,70,0.00,,,0.00,VWS V14.01,2013-12-13 13:09:00,
2013-12-13 08:14:00,11.7,3.8,29.93,WSW,248,0.0,0.0,70,0.00,,,0.00,VWS V14.01,2013-12-13 13:14:00,
2013-12-13 08:19:00,11.7,3.8,29.93,SSW,192,0.0,0.0,70,0.00,,,0.00,VWS V14.01,2013-12-13 13:19:00,
2013-12-13 08:24:00,11.8,4.0,29.93,South,174,0.0,0.0,70,0.00,,,0.00,VWS V14.01,2013-12-13 13:24:00,
2013-12-13 08:29:00,11.8,4.0,29.93,SSE,165,0.0,0.0,70,0.00,,,0.00,VWS V14.01,2013-12-13 13:29:00,
2013-12-13 08:34:00,11.8,4.0,29.93,SSE,165,0.0,0.0,70,0.00,,,0.00,VWS V14.01,2013-12-13 13:34:00,
2013-12-13 08:39:00,11.8,4.0,29.93,SSE,165,0.0,0.0,70,0.00,,,0.00,VWS V14.01,2013-12-13 13:39:00,
2013-12-13 08:44:00,11.8,4.0,29.93,SW,218,0.0,0.0,70,0.00,,,0.00,VWS V14.01,2013-12-13 13:44:00,
2013-12-13 08:49:00,12.0,4.1,29.93,SW,224,0.0,0.0,70,0.00,,,0.00,VWS V14.01,2013-12-13 13:49:00,
2013-12-13 08:54:00,12.0,4.1,29.93,SW,224,0.0,0.0,70,0.00,,,0.00,VWS V14.01,2013-12-13 13:54:00,
2013-12-13 08:59:00,12.2,4.3,29.93,SW,224,0.0,0.0,70,0.00,,,0.00,VWS V14.01,2013-12-13 13:59:00,
2013-12-13 09:04:00,12.4,4.5,29.93,SSW,207,0.0,0.0,70,0.00,,,0.00,VWS V14.01,2013-12-13 14:04:00,
2013-12-13 09:09:00,12.4,4.5,29.93,SW,233,0.0,3.6,70,0.00,,,0.00,VWS V14.01,2013-12-13 14:09:00,
2013-12-13 09:14:00,12.2,4.3,29.96,NW,309,0.0,0.0,70,0.00,,,0.00,VWS V14.01,2013-12-13 14:14:00,
2013-12-13 09:19:00,12.2,4.3,29.96,NW,309,0.0,0.0,70,0.00,,,0.00,VWS V14.01,2013-12-13 14:19:00,
2013-12-13 09:24:00,12.6,4.7,29.96,WNW,300,0.0,0.0,70,0.00,,,0.00,VWS V14.01,2013-12-13 14:24:00,
2013-12-13 09:29:00,12.6,4.7,29.96,WNW,299,0.0,0.0,70,0.00,,,0.00,VWS V14.01,2013-12-13 14:29:00,
2013-12-13 09:34:00,12.9,5.0,29.96,WNW,299,0.0,0.0,70,0.00,,,0.00,VWS V14.01,2013-12-13 14:34:00,
2013-12-13 09:40:00,13.3,5.3,29.96,SSW,212,0.0,0.0,70,0.00,,,0.00,VWS V14.01,2013-12-13 14:40:00,
2013-12-13 09:45:00,13.3,5.3,29.96,SSW,205,0.0,0.0,70,0.00,,,0.00,VWS V14.01,2013-12-13 14:45:00,
2013-12-13 09:50:00,13.6,5.7,29.96,West,260,0.0,0.0,70,0.00,,,0.00,VWS V14.01,2013-12-13 14:50:00,
2013-12-13 09:55:00,13.6,5.7,29.96,SW,221,0.0,0.0,70,0.00,,,0.00,VWS V14.01,2013-12-13 14:55:00,
2013-12-13 10:00:00,14.2,5.9,29.96,South,171,2.7,3.1,69,0.00,,,0.00,VWS V14.01,2013-12-13 15:00:00,
2013-12-13 10:05:00,14.2,5.9,29.96,SW,236,0.0,2.7,69,0.00,,,0.00,VWS V14.01,2013-12-13 15:05:00,
2013-12-13 10:10:00,13.8,5.6,29.96,North,2,0.0,0.0,69,0.00,,,0.00,VWS V14.01,2013-12-13 15:10:00,
2013-12-13 10:15:00,13.3,5.0,29.96,WSW,257,3.1,4.0,69,0.00,,,0.00,VWS V14.01,2013-12-13 15:15:00,
2013-12-13 10:20:00,12.9,4.7,29.96,NW,307,0.0,0.0,69,0.00,,,0.00,VWS V14.01,2013-12-13 15:20:00,
2013-12-13 10:25:00,12.2,4.0,29.96,SW,226,0.0,0.0,69,0.00,,,0.00,VWS V14.01,2013-12-13 15:25:00,
2013-12-13 10:30:00,12.2,4.0,29.98,NW,324,6.3,6.3,69,0.00,,,0.00,VWS V14.01,2013-12-13 15:30:00,
2013-12-13 10:35:00,12.2,4.0,29.98,WSW,252,0.0,6.3,69,0.00,,,0.00,VWS V14.01,2013-12-13 15:35:00,
2013-12-13 10:40:00,12.4,4.2,29.98,SE,144,0.0,0.0,69,0.00,,,0.00,VWS V14.01,2013-12-13 15:40:00,
2013-12-13 10:45:00,13.1,4.8,29.98,SSE,159,0.0,0.0,69,0.00,,,0.00,VWS V14.01,2013-12-13 15:45:00,
2013-12-13 10:50:00,13.8,5.6,29.98,SE,143,3.1,3.1,69,0.00,,,0.00,VWS V14.01,2013-12-13 15:50:00,
2013-12-13 10:55:00,13.8,5.6,29.98,SW,225,0.0,3.1,69,0.00,,,0.00,VWS V14.01,2013-12-13 15:55:00,
2013-12-13 11:00:00,14.2,4.6,29.98,WSW,251,3.1,3.1,65,0.00,,,0.00,VWS V14.01,2013-12-13 16:00:00,
2013-12-13 11:05:00,14.2,4.6,29.98,North,357,4.0,4.9,65,0.00,,,0.00,VWS V14.01,2013-12-13 16:05:00,
2013-12-13 11:10:00,13.3,3.7,29.98,North,353,2.7,2.7,65,0.00,,,0.00,VWS V14.01,2013-12-13 16:10:00,
2013-12-13 11:15:00,12.4,2.9,29.98,WSW,253,0.0,2.7,65,0.00,,,0.00,VWS V14.01,2013-12-13 16:15:00,
2013-12-13 11:20:00,12.4,2.9,29.98,NNE,13,3.6,3.6,65,0.00,,,0.00,VWS V14.01,2013-12-13 16:20:00,
2013-12-13 11:25:00,12.6,3.0,29.98,WNW,289,0.0,3.6,65,0.00,,,0.00,VWS V14.01,2013-12-13 16:25:00,
2013-12-13 11:30:00,12.6,3.0,29.98,NNW,342,3.1,3.1,65,0.00,,,0.00,VWS V14.01,2013-12-13 16:30:00,
2013-12-13 11:35:00,13.3,3.7,29.98,SSW,208,0.0,3.1,65,0.00,,,0.00,VWS V14.01,2013-12-13 16:35:00,
2013-12-13 11:40:00,13.3,3.7,29.98,NNW,333,8.1,8.1,65,0.00,,,0.00,VWS V14.01,2013-12-13 16:40:00,
2013-12-13 11:45:00,13.3,3.7,29.98,WNW,302,2.2,8.1,65,0.00,,,0.00,VWS V14.01,2013-12-13 16:45:00,
2013-12-13 11:50:00,12.4,2.9,29.98,SW,230,2.7,2.7,65,0.00,,,0.00,VWS V14.01,2013-12-13 16:50:00,
2013-12-13 11:55:00,12.4,2.9,29.98,WSW,237,0.0,2.7,65,0.00,,,0.00,VWS V14.01,2013-12-13 16:55:00,
2013-12-13 12:01:00,12.2,2.7,29.98,NW,318,2.7,2.7,65,0.00,,,0.00,VWS V14.01,2013-12-13 17:01:00,
2013-12-13 12:06:00,12.2,2.7,29.98,WNW,286,5.4,5.8,65,0.00,,,0.00,VWS V14.01,2013-12-13 17:06:00,
2013-12-13 12:11:00,12.4,2.9,29.98,NW,324,2.7,2.7,65,0.00,,,0.00,VWS V14.01,2013-12-13 17:11:00,
2013-12-13 12:16:00,12.0,2.5,29.98,West,266,0.0,3.1,65,0.00,,,0.00,VWS V14.01,2013-12-13 17:16:00,
2013-12-13 12:21:00,12.2,2.7,29.98,NW,312,2.2,5.4,65,0.00,,,0.00,VWS V14.01,2013-12-13 17:21:00,
2013-12-13 12:26:00,12.2,2.7,29.98,North,357,3.6,5.4,65,0.00,,,0.00,VWS V14.01,2013-12-13 17:26:00,
2013-12-13 12:31:00,12.2,2.7,29.98,West,259,0.0,0.0,65,0.00,,,0.00,VWS V14.01,2013-12-13 17:31:00,
2013-12-13 12:36:00,12.0,2.5,29.98,NNW,346,2.7,3.6,65,0.00,,,0.00,VWS V14.01,2013-12-13 17:36:00,
2013-12-13 12:41:00,12.0,2.5,29.98,SW,224,0.0,0.0,65,0.00,,,0.00,VWS V14.01,2013-12-13 17:41:00,
2013-12-13 12:46:00,12.2,2.7,29.98,South,186,0.0,0.0,65,0.00,,,0.00,VWS V14.01,2013-12-13 17:46:00,
2013-12-13 12:51:00,12.0,2.5,29.98,SE,139,0.0,0.0,65,0.00,,OVC060,0.00,VWS V14.01,2013-12-13 17:51:00,
2013-12-13 12:56:00,12.0,2.5,29.98,WSW,241,2.7,3.1,65,0.00,,OVC060,0.00,VWS V14.01,2013-12-13 17:56:00,
2013-12-13 13:01:00,12.6,3.0,29.98,SSW,213,2.7,5.8,65,0.00,,OVC060,0.00,VWS V14.01,2013-12-13 18:01:00,
2013-12-13 13:06:00,12.4,2.9,29.98,SSW,213,2.7,5.8,65,0.00,,OVC060,0.00,VWS V14.01,2013-12-13 18:06:00,
2013-12-13 13:11:00,12.4,2.9,29.98,NW,312,2.7,2.7,65,0.00,,OVC060,0.00,VWS V14.01,2013-12-13 18:11:00,
2013-12-13 13:16:00,12.2,2.7,29.98,SSW,211,0.0,2.7,65,0.00,,OVC060,0.00,VWS V14.01,2013-12-13 18:16:00,
2013-12-13 13:21:00,12.6,3.0,30.01,SSW,211,0.0,0.0,65,0.00,,OVC060,0.00,VWS V14.01,2013-12-13 18:21:00,
2013-12-13 13:26:00,12.6,3.0,30.01,SSE,160,0.0,2.7,65,0.00,,OVC060,0.00,VWS V14.01,2013-12-13 18:26:00,
2013-12-13 13:31:00,12.4,2.9,30.01,WNW,289,2.7,2.7,65,0.00,,OVC060,0.00,VWS V14.01,2013-12-13 18:31:00,
2013-12-13 13:36:00,12.6,3.0,30.01,SSE,165,3.1,4.0,65,0.00,,OVC060,0.00,VWS V14.01,2013-12-13 18:36:00,
2013-12-13 13:41:00,12.2,2.7,30.01,SSE,165,3.1,3.1,65,0.00,,,0.00,VWS V14.01,2013-12-13 18:41:00,
2013-12-13 13:46:00,12.2,2.7,30.01,SW,226,5.8,5.8,65,0.00,,,0.00,VWS V14.01,2013-12-13 18:46:00,
2013-12-13 13:51:00,11.7,2.2,30.01,SW,226,5.8,5.8,65,0.00,,,0.00,VWS V14.01,2013-12-13 18:51:00,
2013-12-13 13:56:00,11.7,2.2,30.01,SW,226,5.8,5.8,65,0.00,,,0.00,VWS V14.01,2013-12-13 18:56:00,
2013-12-13 14:01:00,11.7,2.2,30.01,South,181,2.7,2.7,65,0.00,,,0.00,VWS V14.01,2013-12-13 19:01:00,
2013-12-13 14:06:00,11.7,2.2,30.01,SW,229,2.2,2.7,65,0.00,,,0.00,VWS V14.01,2013-12-13 19:06:00,
2013-12-13 14:11:00,12.0,2.5,30.01,WSW,240,2.7,2.7,65,0.00,,,0.00,VWS V14.01,2013-12-13 19:11:00,
2013-12-13 14:16:00,12.7,3.2,30.01,WSW,240,2.7,2.7,65,0.00,,,0.00,VWS V14.01,2013-12-13 19:16:00,
2013-12-13 14:21:00,12.7,3.2,30.01,SW,216,6.3,6.3,65,0.00,,,0.00,VWS V14.01,2013-12-13 19:21:00,
2013-12-13 14:26:00,12.4,2.9,30.01,WSW,254,5.4,6.3,65,0.00,,,0.00,VWS V14.01,2013-12-13 19:26:00,
2013-12-13 14:32:00,12.4,2.9,30.01,SW,228,2.2,2.7,65,0.00,,,0.00,VWS V14.01,2013-12-13 19:32:00,
2013-12-13 14:37:00,11.8,2.4,30.01,SSE,162,0.0,2.7,65,0.00,,,0.00,VWS V14.01,2013-12-13 19:37:00,
2013-12-13 14:42:00,11.5,2.0,30.01,WNW,299,2.2,2.2,65,0.00,,,0.00,VWS V14.01,2013-12-13 19:42:00,
2013-12-13 14:47:00,11.5,2.0,30.01,North,1,6.3,6.3,65,0.00,,,0.00,VWS V14.01,2013-12-13 19:47:00,
2013-12-13 14:52:00,10.8,1.3,30.04,North,1,6.3,6.3,65,0.00,,,0.00,VWS V14.01,2013-12-13 19:52:00,
2013-12-13 14:57:00,10.4,1.0,30.04,SW,227,5.4,6.3,65,0.00,,,0.00,VWS V14.01,2013-12-13 19:57:00,
2013-12-13 15:02:00,10.2,0.8,30.04,WSW,252,3.1,3.1,65,0.00,,,0.00,VWS V14.01,2013-12-13 20:02:00,
2013-12-13 15:07:00,9.7,0.3,30.04,North,6,3.6,3.6,65,0.00,,,0.00,VWS V14.01,2013-12-13 20:07:00,
2013-12-13 15:12:00,9.5,0.1,30.04,North,6,3.6,3.6,65,0.00,,,0.00,VWS V14.01,2013-12-13 20:12:00,
2013-12-13 15:17:00,9.1,-0.2,30.04,SE,145,0.0,3.6,65,0.00,,,0.00,VWS V14.01,2013-12-13 20:17:00,
2013-12-13 15:22:00,9.1,-0.2,30.04,West,281,3.6,3.6,65,0.00,,,0.00,VWS V14.01,2013-12-13 20:22:00,
2013-12-13 15:27:00,8.6,-0.7,30.04,West,281,3.6,3.6,65,0.00,,,0.00,VWS V14.01,2013-12-13 20:27:00,
2013-12-13 15:32:00,8.6,-0.7,30.07,SSW,197,0.0,0.0,65,0.00,,,0.00,VWS V14.01,2013-12-13 20:32:00,
2013-12-13 15:37:00,8.4,-0.9,30.07,SSW,197,0.0,0.0,65,0.00,,,0.00,VWS V14.01,2013-12-13 20:37:00,
2013-12-13 15:42:00,8.1,-1.2,30.07,South,178,0.0,0.0,65,0.00,,BKN027,0.00,VWS V14.01,2013-12-13 20:42:00,
2013-12-13 15:47:00,8.1,-1.2,30.07,South,178,0.0,0.0,65,0.00,,BKN027,0.00,VWS V14.01,2013-12-13 20:47:00,
2013-12-13 15:52:00,7.7,-1.6,30.07,South,178,0.0,0.0,65,0.00,,BKN027,0.00,VWS V14.01,2013-12-13 20:52:00,
2013-12-13 15:57:00,7.2,-2.1,30.07,South,178,0.0,0.0,65,0.00,,BKN027,0.00,VWS V14.01,2013-12-13 20:57:00,
2013-12-13 16:02:00,7.0,-2.3,30.07,West,266,0.0,0.0,65,0.00,,BKN027,0.00,VWS V14.01,2013-12-13 21:02:00,
2013-12-13 16:07:00,7.0,-2.3,30.07,WSW,258,0.0,0.0,65,0.00,,BKN027,0.00,VWS V14.01,2013-12-13 21:07:00,
2013-12-13 16:12:00,6.3,-3.0,30.10,WSW,258,0.0,0.0,65,0.00,,BKN027,0.00,VWS V14.01,2013-12-13 21:12:00,
2013-12-13 16:17:00,6.3,-3.0,30.10,NW,318,0.0,3.1,65,0.00,,BKN027,0.00,VWS V14.01,2013-12-13 21:17:00,
2013-12-13 16:22:00,6.3,-3.0,30.10,NW,318,0.0,0.0,65,0.00,,BKN027,0.00,VWS V14.01,2013-12-13 21:22:00,
2013-12-13 16:27:00,5.4,-3.8,30.10,NW,318,0.0,0.0,65,0.00,,BKN027,0.00,VWS V14.01,2013-12-13 21:27:00,
2013-12-13 16:32:00,5.4,-3.8,30.10,NW,318,0.0,0.0,65,0.00,,BKN027,0.00,VWS V14.01,2013-12-13 21:32:00,
2013-12-13 16:37:00,5.4,-3.8,30.10,NW,318,0.0,0.0,65,0.00,,BKN027,0.00,VWS V14.01,2013-12-13 21:37:00,
2013-12-13 16:42:00,5.4,-3.8,30.10,NW,318,0.0,0.0,65,0.00,,FEW017,0.00,VWS V14.01,2013-12-13 21:42:00,
2013-12-13 16:47:00,4.6,-4.5,30.13,SW,220,0.0,0.0,65,0.00,,FEW017,0.00,VWS V14.01,2013-12-13 21:47:00,
2013-12-13 16:52:00,4.3,-4.9,30.13,North,357,0.0,0.0,65,0.00,,FEW017,0.00,VWS V14.01,2013-12-13 21:52:00,
2013-12-13 16:57:00,4.3,-4.9,30.13,North,357,0.0,0.0,65,0.00,,FEW017,0.00,VWS V14.01,2013-12-13 21:57:00,
2013-12-13 17:02:00,3.4,-5.7,30.13,North,357,0.0,0.0,65,0.00,,FEW017,0.00,VWS V14.01,2013-12-13 22:02:00,
2013-12-13 17:08:00,3.4,-5.7,30.13,North,357,0.0,0.0,65,0.00,,FEW017,0.00,VWS V14.01,2013-12-13 22:08:00,
2013-12-13 17:13:00,2.7,-6.4,30.13,North,357,0.0,0.0,65,0.00,,FEW017,0.00,VWS V14.01,2013-12-13 22:13:00,
2013-12-13 17:18:00,1.6,-7.4,30.13,North,357,0.0,0.0,65,0.00,,FEW017,0.00,VWS V14.01,2013-12-13 22:18:00,
2013-12-13 17:23:00,1.6,-7.4,30.13,North,357,0.0,0.0,65,0.00,,FEW017,0.00,VWS V14.01,2013-12-13 22:23:00,
2013-12-13 17:28:00,0.7,-8.3,30.13,North,357,0.0,0.0,65,0.00,,FEW017,0.00,VWS V14.01,2013-12-13 22:28:00,
2013-12-13 17:33:00,0.7,-8.3,30.13,North,357,0.0,0.0,65,0.00,,FEW017,0.00,VWS V14.01,2013-12-13 22:33:00,
2013-12-13 17:38:00,-0.2,-9.2,30.13,North,357,0.0,0.0,65,0.00,,FEW017,0.00,VWS V14.01,2013-12-13 22:38:00,
2013-12-13 17:43:00,-0.6,-9.5,30.13,North,357,0.0,0.0,65,0.00,,CLR,0.00,VWS V14.01,2013-12-13 22:43:00,
2013-12-13 17:48:00,-0.9,-9.9,30.13,North,357,0.0,0.0,65,0.00,,CLR,0.00,VWS V14.01,2013-12-13 22:48:00,
2013-12-13 17:53:00,-1.3,-10.2,30.13,North,357,0.0,0.0,65,0.00,,CLR,0.00,VWS V14.01,2013-12-13 22:53:00,
2013-12-13 17:58:00,-1.3,-10.2,30.13,North,357,0.0,0.0,65,0.00,,CLR,0.00,VWS V14.01,2013-12-13 22:58:00,
2013-12-13 18:03:00,-1.3,-10.2,30.16,North,357,0.0,0.0,65,0.00,,CLR,0.00,VWS V14.01,2013-12-13 23:03:00,
2013-12-13 18:08:00,-1.3,-10.2,30.16,North,357,0.0,0.0,65,0.00,,CLR,0.00,VWS V14.01,2013-12-13 23:08:00,
2013-12-13 18:13:00,-2.4,-11.2,30.16,North,357,0.0,0.0,65,0.00,,CLR,0.00,VWS V14.01,2013-12-13 23:13:00,
2013-12-13 18:18:00,-2.4,-11.2,30.16,North,357,0.0,0.0,65,0.00,,CLR,0.00,VWS V14.01,2013-12-13 23:18:00,
2013-12-13 18:23:00,-2.4,-11.2,30.16,North,357,0.0,0.0,65,0.00,,CLR,0.00,VWS V14.01,2013-12-13 23:23:00,
2013-12-13 18:28:00,-3.3,-12.1,30.16,North,357,0.0,0.0,65,0.00,,CLR,0.00,VWS V14.01,2013-12-13 23:28:00,
2013-12-13 18:33:00,-3.6,-12.4,30.16,North,357,0.0,0.0,65,0.00,,CLR,0.00,VWS V14.01,2013-12-13 23:33:00,
2013-12-13 18:38:00,-3.6,-12.4,30.16,North,357,0.0,0.0,65,0.00,,CLR,0.00,VWS V14.01,2013-12-13 23:38:00,
2013-12-13 18:43:00,-3.6,-12.4,30.19,North,357,0.0,0.0,65,0.00,,,0.00,VWS V14.01,2013-12-13 23:43:00,
2013-12-13 18:48:00,-4.2,-12.9,30.19,North,357,0.0,0.0,65,0.00,,,0.00,VWS V14.01,2013-12-13 23:48:00,
2013-12-13 18:53:00,-4.2,-12.9,30.19,North,357,0.0,0.0,65,0.00,,,0.00,VWS V14.01,2013-12-13 23:53:00,
2013-12-13 18:58:00,-4.7,-13.5,30.19,North,357,0.0,0.0,65,0.00,,,0.00,VWS V14.01,2013-12-13 23:58:00,
2013-12-13 19:03:00,-4.9,-13.6,30.19,North,357,0.0,0.0,65,0.00,,,0.00,VWS V14.01,2013-12-14 00:03:00,
2013-12-13 19:08:00,-5.3,-14.0,30.19,North,357,0.0,0.0,65,0.00,,,0.00,VWS V14.01,2013-12-14 00:08:00,
2013-12-13 19:13:00,-5.4,-14.2,30.19,North,357,0.0,0.0,65,0.00,,,0.00,VWS V14.01,2013-12-14 00:13:00,
2013-12-13 19:18:00,-5.6,-14.3,30.19,North,357,0.0,0.0,65,0.00,,,0.00,VWS V14.01,2013-12-14 00:18:00,
2013-12-13 19:23:00,-6.0,-14.7,30.19,North,357,0.0,0.0,65,0.00,,,0.00,VWS V14.01,2013-12-14 00:23:00,
2013-12-13 19:28:00,-6.2,-14.9,30.19,North,357,0.0,0.0,65,0.00,,,0.00,VWS V14.01,2013-12-14 00:28:00,
2013-12-13 19:34:00,-6.2,-14.9,30.19,North,357,0.0,0.0,65,0.00,,,0.00,VWS V14.01,2013-12-14 00:34:00,
2013-12-13 19:39:00,-6.2,-14.9,30.22,North,357,0.0,0.0,65,0.00,,,0.00,VWS V14.01,2013-12-14 00:39:00,
2013-12-13 19:44:00,-6.2,-14.9,30.22,North,357,0.0,0.0,65,0.00,,,0.00,VWS V14.01,2013-12-14 00:44:00,
2013-12-13 19:49:00,-6.2,-14.9,30.22,North,357,0.0,0.0,65,0.00,,,0.00,VWS V14.01,2013-12-14 00:49:00,
2013-12-13 19:54:00,-7.2,-15.9,30.22,North,357,0.0,0.0,65,0.00,,,0.00,VWS V14.01,2013-12-14 00:54:00,
2013-12-13 19:59:00,-7.2,-15.9,30.22,North,357,0.0,0.0,65,0.00,,,0.00,VWS V14.01,2013-12-14 00:59:00,
2013-12-13 20:04:00,-7.6,-16.2,30.22,North,357,0.0,0.0,65,0.00,,,0.00,VWS V14.01,2013-12-14 01:04:00,
2013-12-13 20:09:00,-8.0,-16.6,30.22,North,357,0.0,0.0,65,0.00,,,0.00,VWS V14.01,2013-12-14 01:09:00,
2013-12-13 20:13:00,-8.0,-16.6,30.22,North,357,0.0,0.0,65,0.00,,,0.00,VWS V14.01,2013-12-14 01:13:00,
2013-12-13 20:18:00,-8.1,-16.7,30.22,North,357,0.0,0.0,65,0.00,,,0.00,VWS V14.01,2013-12-14 01:18:00,
2013-12-13 20:23:00,-8.1,-16.7,30.22,North,357,0.0,0.0,65,0.00,,,0.00,VWS V14.01,2013-12-14 01:23:00,
2013-12-13 20:28:00,-8.9,-17.4,30.22,North,357,0.0,0.0,65,0.00,,,0.00,VWS V14.01,2013-12-14 01:28:00,
2013-12-13 20:34:00,-8.9,-17.4,30.22,North,357,0.0,0.0,65,0.00,,,0.00,VWS V14.01,2013-12-14 01:34:00,
2013-12-13 20:39:00,-9.0,-17.6,30.22,North,357,0.0,0.0,65,0.00,,,0.00,VWS V14.01,2013-12-14 01:39:00,
2013-12-13 20:44:00,-9.2,-17.8,30.22,North,357,0.0,0.0,65,0.00,,,0.00,VWS V14.01,2013-12-14 01:44:00,
2013-12-13 20:49:00,-9.2,-17.8,30.22,North,357,0.0,0.0,65,0.00,,,0.00,VWS V14.01,2013-12-14 01:49:00,
2013-12-13 20:54:00,-9.6,-18.1,30.22,North,357,0.0,0.0,65,0.00,,,0.00,VWS V14.01,2013-12-14 01:54:00,
2013-12-13 20:59:00,-9.6,-18.1,30.22,North,357,0.0,0.0,65,0.00,,,0.00,VWS V14.01,2013-12-14 01:59:00,
2013-12-13 21:04:00,-9.6,-18.1,30.22,North,357,0.0,0.0,65,0.00,,,0.00,VWS V14.01,2013-12-14 02:04:00,
2013-12-13 21:09:00,-9.9,-18.5,30.22,North,357,0.0,0.0,65,0.00,,,0.00,VWS V14.01,2013-12-14 02:09:00,
2013-12-13 21:14:00,-10.1,-18.6,30.22,North,357,0.0,0.0,65,0.00,,,0.00,VWS V14.01,2013-12-14 02:14:00,
2013-12-13 21:19:00,-10.3,-18.8,30.22,North,357,0.0,0.0,65,0.00,,,0.00,VWS V14.01,2013-12-14 02:19:00,
2013-12-13 21:24:00,-10.3,-18.8,30.22,North,357,0.0,0.0,65,0.00,,,0.00,VWS V14.01,2013-12-14 02:24:00,
2013-12-13 21:29:00,-10.3,-18.8,30.22,North,357,0.0,0.0,65,0.00,,,0.00,VWS V14.01,2013-12-14 02:29:00,
2013-12-13 21:34:00,-10.3,-18.8,30.25,North,357,0.0,0.0,65,0.00,,,0.00,VWS V14.01,2013-12-14 02:34:00,
2013-12-13 21:39:00,-10.5,-19.0,30.25,North,357,0.0,0.0,65,0.00,,,0.00,VWS V14.01,2013-12-14 02:39:00,
2013-12-13 21:44:00,-10.5,-19.0,30.25,North,357,0.0,0.0,65,0.00,,CLR,0.00,VWS V14.01,2013-12-14 02:44:00,
2013-12-13 21:49:00,-10.5,-19.0,30.25,North,357,0.0,0.0,65,0.00,,CLR,0.00,VWS V14.01,2013-12-14 02:49:00,
2013-12-13 21:54:00,-10.8,-19.3,30.25,North,357,0.0,0.0,65,0.00,,CLR,0.00,VWS V14.01,2013-12-14 02:54:00,
2013-12-13 21:59:00,-10.8,-19.3,30.25,North,357,0.0,0.0,65,0.00,,CLR,0.00,VWS V14.01,2013-12-14 02:59:00,
2013-12-13 22:04:00,-11.0,-19.5,30.25,North,357,0.0,0.0,65,0.00,,CLR,0.00,VWS V14.01,2013-12-14 03:04:00,
2013-12-13 22:09:00,-11.0,-19.5,30.25,North,357,0.0,0.0,65,0.00,,CLR,0.00,VWS V14.01,2013-12-14 03:09:00,
2013-12-13 22:14:00,-11.2,-19.7,30.25,North,357,0.0,0.0,65,0.00,,CLR,0.00,VWS V14.01,2013-12-14 03:14:00,
2013-12-13 22:19:00,-11.2,-19.7,30.25,North,357,0.0,0.0,65,0.00,,CLR,0.00,VWS V14.01,2013-12-14 03:19:00,
2013-12-13 22:24:00,-11.2,-19.7,30.25,North,357,0.0,0.0,65,0.00,,CLR,0.00,VWS V14.01,2013-12-14 03:24:00,
2013-12-13 22:29:00,-11.6,-20.0,30.28,North,357,0.0,0.0,65,0.00,,CLR,0.00,VWS V14.01,2013-12-14 03:29:00,
2013-12-13 22:34:00,-11.6,-20.0,30.28,North,357,0.0,0.0,65,0.00,,CLR,0.00,VWS V14.01,2013-12-14 03:34:00,
2013-12-13 22:39:00,-11.9,-20.4,30.28,North,357,0.0,0.0,65,0.00,,CLR,0.00,VWS V14.01,2013-12-14 03:39:00,
2013-12-13 22:44:00,-11.9,-20.4,30.28,North,357,0.0,0.0,65,0.00,,CLR,0.00,VWS V14.01,2013-12-14 03:44:00,
2013-12-13 22:49:00,-11.9,-20.4,30.28,North,357,0.0,0.0,65,0.00,,CLR,0.00,VWS V14.01,2013-12-14 03:49:00,
2013-12-13 22:54:00,-12.3,-20.7,30.28,North,357,0.0,0.0,65,0.00,,CLR,0.00,VWS V14.01,2013-12-14 03:54:00,
2013-12-13 22:59:00,-12.3,-20.7,30.28,North,357,0.0,0.0,65,0.00,,CLR,0.00,VWS V14.01,2013-12-14 03:59:00,
2013-12-13 23:04:00,-12.5,-20.9,30.28,North,357,0.0,0.0,65,0.00,,CLR,0.00,VWS V14.01,2013-12-14 04:04:00,
2013-12-13 23:09:00,-12.5,-20.9,30.28,North,357,0.0,0.0,65,0.00,,CLR,0.00,VWS V14.01,2013-12-14 04:09:00,
2013-12-13 23:14:00,-12.5,-20.9,30.28,North,357,0.0,0.0,65,0.00,,CLR,0.00,VWS V14.01,2013-12-14 04:14:00,
2013-12-13 23:19:00,-12.6,-21.0,30.28,North,357,0.0,0.0,65,0.00,,CLR,0.00,VWS V14.01,2013-12-14 04:19:00,
2013-12-13 23:24:00,-12.6,-21.0,30.28,North,357,0.0,0.0,65,0.00,,CLR,0.00,VWS V14.01,2013-12-14 04:24:00,
2013-12-13 23:29:00,-12.8,-21.2,30.28,North,357,0.0,0.0,65,0.00,,CLR,0.00,VWS V14.01,2013-12-14 04:29:00,
2013-12-13 23:34:00,-13.2,-21.6,30.28,North,357,0.0,0.0,65,0.00,,CLR,0.00,VWS V14.01,2013-12-14 04:34:00,
2013-12-13 23:39:00,-13.4,-21.7,30.28,North,357,0.0,0.0,65,0.00,,CLR,0.00,VWS V14.01,2013-12-14 04:39:00,
2013-12-13 23:44:00,-13.4,-21.7,30.31,North,357,0.0,0.0,65,0.00,,CLR,0.00,VWS V14.01,2013-12-14 04:44:00,
2013-12-13 23:49:00,-13.5,-21.9,30.31,North,357,0.0,0.0,65,0.00,,CLR,0.00,VWS V14.01,2013-12-14 04:49:00,
2013-12-13 23:54:00,-13.7,-22.1,30.31,North,357,0.0,0.0,65,0.00,,CLR,0.00,VWS V14.01,2013-12-14 04:54:00,